Kalamazoo, MI

10:45 PM EDT on June 23, 2017 (GMT -0400)
Kalamazoo-Battle Creek International

Weather History for KAZO - June, 2013

Change the Weather History Date:

Wednesday, June 19, 2013

  Actual Average Record
Temperature  
Mean Temperature 62 °F 70 °F  
Max Temperature 76 °F 80 °F 98 °F (1953)
Min Temperature 47 °F 59 °F 47 °F (2013)
Degree Days  
Heating Degree Days 3 1  
Month to date heating degree days 39 42  
Since 1 June heating degree days 39 42  
Since 1 July heating degree days 6311 6410  
Cooling Degree Days 0 5  
Month to date cooling degree days 47 75  
Year to date cooling degree days 127 116  
Since 1 June cooling degree days 47 75  
Growing Degree Days 12 (Base 50)    
Moisture  
Dew Point 44 °F    
Average Humidity 58    
Maximum Humidity 86    
Minimum Humidity 29    
Precipitation  
Precipitation 0.00 in 0.12 in 1.25 in (1986)
Month to date precipitation 1.60 2.40  
Year to date precipitation 16.66 14.84  
Sea Level Pressure  
Sea Level Pressure 30.14 in    
Wind  
Wind Speed 2 mph (South)    
Max Wind Speed 9 mph    
Max Gust Speed 15 mph    
Visibility 10 miles    
Events      
T = Trace of Precipitation, MM = Missing Value Source: NWS Daily Summary

Daily Weather History Graph

Daily Weather History Graph

Search for Another Location

Airport or City:

Trip Planner

Search our weather history database for the weather conditions in past years. The results will help you decide how hot, cold, wet, or windy it might be!

Date:

Astronomy

Jun. 19, 2013 Rise Set
Actual Time 6:05 AM EDT 9:21 PM EDT
Civil Twilight 5:30 AM EDT 9:56 PM EDT
Nautical Twilight 4:46 AM EDT 10:41 PM EDT
Astronomical Twilight 3:51 AM EDT 11:35 PM EDT
Moon 5:10 PM EDT (6/19) 2:53 AM EDT (6/19)
Length of Visible Light 16h 25m
Length of Day
15h 16m
Waxing Gibbous, 80% of the Moon is Illuminated
Jun 19
Waxing Gibbous
Jun 23
Full
Jun 30
Last Quarter
Jul 8
New
Jul 15
First Quarter

Hourly Weather History & Observations

Time (EDT) Temp. Dew Point Humidity Pressure Visibility Wind Dir Wind Speed Gust Speed Precip Events Conditions
12:53 AM 55.9 °F 45.0 °F 67% 30.09 in 10.0 mi Calm Calm - N/A   Clear
1:53 AM 55.0 °F 44.1 °F 67% 30.09 in 10.0 mi Calm Calm - N/A   Clear
2:53 AM 53.1 °F 43.0 °F 69% 30.11 in 10.0 mi Calm Calm - N/A   Clear
3:53 AM 53.1 °F 44.1 °F 71% 30.12 in 10.0 mi NE 3.5 mph - N/A   Clear
4:53 AM 51.1 °F 44.1 °F 77% 30.12 in 10.0 mi Calm Calm - N/A   Clear
5:53 AM 48.0 °F 44.1 °F 86% 30.15 in 10.0 mi Calm Calm - N/A   Clear
6:53 AM 50.0 °F 45.0 °F 83% 30.16 in 10.0 mi Calm Calm - N/A   Clear
7:53 AM 54.0 °F 43.0 °F 66% 30.17 in 10.0 mi ENE 5.8 mph - N/A   Clear
8:53 AM 57.9 °F 44.1 °F 60% 30.18 in 10.0 mi Variable 3.5 mph - N/A   Clear
9:53 AM 63.0 °F 46.0 °F 54% 30.18 in 10.0 mi Variable 3.5 mph - N/A   Clear
10:53 AM 64.9 °F 45.0 °F 48% 30.18 in 10.0 mi Calm Calm - N/A   Clear
11:53 AM 69.1 °F 44.1 °F 40% 30.16 in 10.0 mi ENE 5.8 mph - N/A   Clear
12:53 PM 72.0 °F 45.0 °F 38% 30.17 in 10.0 mi SSE 4.6 mph - N/A   Clear
1:53 PM 72.0 °F 42.1 °F 34% 30.16 in 10.0 mi Variable 5.8 mph - N/A   Clear
2:53 PM 73.0 °F 44.1 °F 35% 30.14 in 10.0 mi Calm Calm - N/A   Clear
3:53 PM 73.0 °F 44.1 °F 35% 30.14 in 10.0 mi SSW 4.6 mph - N/A   Clear
4:53 PM 75.0 °F 44.1 °F 33% 30.12 in 10.0 mi SW 6.9 mph - N/A   Clear
5:53 PM 75.9 °F 44.1 °F 32% 30.11 in 10.0 mi Variable 4.6 mph - N/A   Clear
6:53 PM 75.0 °F 41.0 °F 29% 30.10 in 10.0 mi Calm Calm - N/A   Clear
7:53 PM 73.9 °F 44.1 °F 34% 30.11 in 10.0 mi West 4.6 mph - N/A   Clear
8:53 PM 71.1 °F 45.0 °F 39% 30.12 in 10.0 mi West 3.5 mph - N/A   Clear
9:53 PM 64.9 °F 46.9 °F 52% 30.13 in 10.0 mi Calm Calm - N/A   Clear
10:53 PM 63.0 °F 46.9 °F 56% 30.14 in 10.0 mi Calm Calm - N/A   Clear
11:53 PM 60.1 °F 48.9 °F 67% 30.14 in 10.0 mi Calm Calm - N/A   Clear